GEFSSE_con_cape1000_216.txt.gz
Probability
52 55 90 97 97 97 97 100 97 94 97 90 87 84 87 87 87 81 77 68 65 68 61 65 65 58 52 52 52 45 48 55 45 42 48 42 55 58 77 71 61 77 97
55 68 90 94 94 94 100 100 100 97 87 87 84 87 90 84 84 81 68 68 61 61 52 48 52 48 39 32 39 35 35 35 35 35 42 45 52 68 74 68 74 87 87
58 68 90 97 97 97 97 97 94 90 87 84 87 87 84 81 81 74 68 68 58 55 48 48 48 39 42 35 35 35 32 32 32 39 58 52 52 74 74 71 77 87 87
55 61 74 97 97 97 97 97 90 90 87 84 74 81 77 81 74 74 71 68 61 58 48 45 42 35 42 39 42 39 39 35 39 48 39 42 48 74 71 71 77 84 81
68 74 87 97 97 94 94 94 90 94 84 84 84 77 77 71 68 65 61 58 55 55 48 48 45 42 39 35 35 26 32 35 42 42 26 32 52 71 77 68 65 68 77
68 77 84 90 87 87 84 77 84 77 77 77 77 68 68 68 65 61 61 58 52 48 48 48 42 39 35 29 29 29 35 35 39 19 16 29 48 74 77 68 61 65 74
74 74 81 84 84 81 84 81 84 84 77 77 71 65 55 58 61 58 58 52 48 52 48 42 45 42 39 32 32 29 32 35 32 23 26 26 48 74 71 58 65 74 74
68 65 77 84 87 87 87 84 81 84 84 84 71 61 58 61 65 61 55 52 52 52 48 48 48 48 42 39 35 35 35 35 32 23 19 26 55 68 68 61 61 71 74
58 61 68 74 77 84 84 84 81 81 81 68 68 65 61 58 61 55 52 52 52 48 48 45 45 45 39 39 35 32 39 42 32 19 16 23 61 68 61 61 65 68 74
58 68 71 71 71 71 68 74 74 74 74 68 65 58 58 61 61 58 58 58 55 52 48 48 52 45 42 35 32 39 39 42 26 6 16 26 61 55 55 55 58 65 65
68 71 65 71 68 65 58 61 68 71 61 58 52 52 55 52 48 52 39 52 45 45 45 48 52 52 45 39 39 42 42 26 16 16 16 39 55 52 52 52 58 58 58
61 65 68 68 68 52 52 52 55 45 52 48 48 45 55 55 58 35 42 52 48 42 45 45 52 52 42 29 32 42 23 16 10 16 23 45 45 45 42 45 48 55 58
55 52 61 65 58 52 52 52 55 39 48 45 55 55 58 58 52 48 42 42 42 39 48 48 39 29 26 26 29 26 16 16 13 13 23 45 42 35 32 42 48 45 52
55 55 48 55 61 52 55 52 58 45 45 42 52 58 55 52 55 48 45 39 42 39 39 39 39 35 29 23 26 19 16 19 13 10 26 39 39 35 35 42 45 42 42
55 65 52 58 65 61 61 61 55 52 48 55 55 58 52 52 45 42 48 42 39 39 39 39 39 32 32 23 16 16 16 19 16 16 26 32 32 32 29 29 35 32 35
52 61 61 61 65 61 61 61 55 58 55 55 55 52 45 45 48 42 42 39 35 39 35 39 35 35 35 29 19 13 13 16 19 19 16 29 32 32 29 23 23 26 32
55 58 65 65 65 61 61 58 55 55 55 55 52 45 45 39 42 42 48 32 32 29 35 35 32 32 32 26 23 19 16 19 19 19 13 19 23 29 32 26 29 26 26
52 55 55 52 65 65 61 58 55 55 55 55 52 48 45 42 42 42 35 39 32 29 32 32 35 29 26 23 16 19 16 19 19 19 19 13 16 13 23 23 32 29 26
52 55 55 55 61 61 61 58 55 55 52 52 52 48 45 42 42 39 42 39 35 32 32 32 32 26 29 26 19 16 16 23 19 19 19 16 13 16 13 23 29 32 26
48 55 55 55 58 61 55 55 55 52 52 52 52 48 45 42 39 39 35 32 32 32 32 32 26 26 26 23 13 6 16 16 23 16 19 16 16 10 10 6 6 19 29
48 52 52 52 52 52 52 52 55 45 48 45 48 48 48 39 35 32 29 35 32 29 26 26 26 19 23 23 19 13 16 10 16 16 19 16 16 10 6 13 13 10 16
45 48 48 48 48 48 52 55 52 48 45 48 39 35 39 35 35 29 32 32 29 29 29 23 19 16 16 16 10 13 13 10 13 3 16 13 13 6 6 6 6 10 6
48 52 48 52 45 45 48 52 52 52 48 42 35 32 35 35 35 35 35 32 29 26 26 23 19 23 19 19 10 10 6 3 3 10 13 10 13 13 13 6 10 10 10
42 45 48 45 42 45 45 48 52 48 42 42 32 35 35 35 32 35 35 32 23 23 23 16 19 19 13 13 16 13 6 6 3 6 3 6 13 13 10 3 3 6 6
32 35 42 45 35 39 39 45 52 52 48 39 35 35 32 29 29 29 26 29 23 26 23 19 19 19 16 16 13 19 6 10 3 3 0 6 6 13 13 16 6 10 10
32 29 32 39 39 39 39 39 45 45 42 42 39 32 29 29 23 23 29 32 35 29 23 19 19 19 16 16 16 13 6 3 3 3 3 0 3 3 6 10 10 10 10

GEFSSE_con_cape1000_222.txt.gz
Probability
52 77 97 94 94 94 97 97 94 87 84 84 90 87 87 87 87 84 77 77 77 74 68 68 65 61 58 61 58 55 55 48 52 55 58 55 55 58 68 74 84 71 94
45 84 97 94 94 97 97 97 94 90 90 90 90 90 87 84 84 81 74 71 68 71 61 58 58 58 55 55 55 52 48 48 45 52 52 55 61 68 74 77 90 84 94
61 81 97 100 97 97 97 97 97 94 87 90 90 87 87 84 84 77 71 68 61 55 55 48 45 45 42 45 45 45 45 48 48 48 45 35 45 65 77 74 81 90 94
55 71 94 100 97 97 97 97 97 94 90 90 90 87 87 84 77 71 71 65 58 58 52 42 39 39 42 42 42 42 35 39 42 48 29 32 29 61 84 81 84 81 84
52 61 94 97 100 100 100 97 94 90 90 90 84 84 81 77 71 68 65 58 52 55 52 42 42 42 39 35 39 35 39 32 29 32 19 23 16 55 77 77 81 81 84
52 68 87 100 100 100 100 94 90 87 84 81 84 81 74 68 68 65 65 58 52 48 48 45 45 42 42 42 39 39 39 29 29 23 16 19 16 52 74 74 74 77 77
45 58 81 94 97 94 90 84 84 87 84 81 77 77 71 68 65 61 65 58 55 52 52 48 48 48 42 42 39 42 32 26 19 19 16 19 23 65 77 74 74 77 77
42 58 74 84 77 77 87 87 87 84 84 81 77 71 65 58 65 58 55 52 55 52 48 45 52 48 48 48 45 39 32 32 19 16 16 19 32 65 68 68 71 71 74
42 58 68 68 71 77 81 77 81 81 81 81 71 68 61 55 52 48 45 52 45 45 42 45 45 45 48 45 48 35 39 35 29 19 16 19 35 65 68 65 65 65 68
39 48 65 65 65 65 65 74 71 71 71 65 61 52 48 48 48 52 52 52 45 48 45 45 45 48 48 45 42 39 39 32 26 23 13 13 45 61 58 61 61 61 65
39 42 48 55 55 61 61 61 61 61 55 55 45 45 52 39 32 39 45 45 48 45 45 45 48 48 52 42 45 45 32 23 19 13 13 19 45 52 52 48 52 52 55
42 39 48 48 45 45 55 58 52 48 48 42 39 42 32 26 29 32 35 42 42 35 35 45 45 45 35 29 26 35 26 19 13 13 16 32 45 42 45 48 48 48 48
45 42 48 42 42 35 32 42 45 39 39 29 29 29 26 26 23 26 29 32 32 32 32 32 32 32 26 19 16 13 13 13 13 13 13 39 39 39 39 42 42 45 45
45 45 42 42 29 29 35 39 32 26 23 23 23 23 23 23 23 23 19 23 23 26 23 23 23 23 19 19 10 6 6 10 10 3 6 32 35 35 35 39 42 42 39
42 39 45 39 29 32 19 29 29 26 19 19 19 23 23 19 23 23 19 23 19 13 13 13 13 10 10 13 10 10 6 6 6 3 3 26 32 35 29 35 35 35 29
29 32 45 35 32 26 23 23 19 16 13 19 23 23 26 23 19 16 16 16 10 10 6 10 3 3 3 3 3 6 6 3 3 3 3 13 26 29 29 29 32 29 26
29 26 29 35 32 32 29 23 19 16 13 19 26 29 26 19 16 13 13 13 10 6 6 6 3 3 3 3 3 6 6 6 3 3 3 3 13 26 29 29 26 29 19
26 29 29 32 29 32 35 19 16 13 10 10 19 23 26 16 13 10 13 10 6 6 6 6 6 6 3 3 6 6 6 3 3 3 3 6 10 10 16 23 23 23 23
19 23 19 26 26 26 29 26 23 19 13 13 23 23 10 13 13 16 10 10 6 6 3 3 6 3 0 0 0 0 0 0 0 0 3 3 6 6 6 13 16 16 16
16 16 19 16 19 19 23 29 23 19 16 16 16 19 13 13 13 13 13 10 6 6 3 3 3 3 3 3 3 3 0 0 0 0 3 3 3 3 6 3 10 16 16
16 16 16 16 16 19 23 23 23 16 16 13 13 13 13 13 10 3 6 3 3 3 3 3 3 3 3 3 3 3 0 0 3 3 3 3 3 3 6 3 3 6 10
19 23 16 16 26 23 26 26 16 6 6 6 3 10 13 16 10 13 6 6 3 3 0 3 3 3 0 0 0 0 0 0 0 0 0 0 0 3 3 3 3 3 0
19 23 23 26 23 26 23 23 16 10 10 3 3 6 10 16 6 6 6 3 0 0 0 3 3 0 0 0 0 0 0 0 0 0 0 0 0 0 0 3 3 3 3
23 23 23 23 19 19 23 23 19 13 10 6 6 6 6 13 10 6 10 3 0 0 0 0 3 0 0 0 0 0 0 0 0 0 0 0 0 0 0 0 3 3 0
23 19 19 13 13 19 23 19 13 6 3 3 3 6 6 6 10 6 10 3 3 3 0 0 3 0 0 0 0 0 0 0 0 0 0 0 0 0 0 0 0 0 0
19 19 13 13 13 13 19 16 13 10 6 6 3 3 3 3 3 6 6 6 3 3 3 0 0 0 0 0 0 0 0 0 0 0 0 0 0 0 0 0 0 0 3

GEFSSE_con_cape1000_228.txt.gz
Probability
32 55 94 90 87 84 87 90 94 90 87 87 87 87 90 90 90 87 87 87 87 77 77 71 61 58 61 65 65 52 55 55 55 55 48 48 52 61 68 71 65 58 81
48 58 94 94 94 87 90 90 94 90 87 87 87 87 87 90 87 87 84 84 77 71 68 61 58 58 58 55 52 52 48 52 52 52 48 45 48 68 74 71 74 65 87
52 68 84 94 94 94 94 94 97 90 90 90 87 87 87 81 84 84 77 71 71 68 65 58 58 55 55 55 52 55 55 52 52 55 52 45 52 61 65 74 77 84 84
52 71 81 94 97 94 94 97 94 90 90 90 87 87 87 77 74 77 71 68 65 61 58 55 52 48 52 48 48 55 55 48 52 52 42 35 45 58 61 68 74 81 77
42 52 71 90 94 97 97 94 94 90 90 90 87 84 81 81 77 71 71 61 65 58 52 48 45 42 48 48 45 42 45 48 52 45 32 32 32 45 58 68 74 77 77
42 55 68 87 87 87 84 90 90 87 87 84 84 84 81 74 71 71 65 58 55 55 48 45 42 39 42 39 42 45 45 39 35 23 26 29 29 32 61 58 65 71 74
42 52 68 87 87 84 87 84 84 81 77 77 84 81 71 65 61 65 58 52 52 45 45 42 42 42 39 35 35 39 42 39 26 23 23 26 29 42 61 58 61 71 68
45 45 68 81 81 84 84 77 77 77 77 77 74 65 65 61 58 58 55 52 55 45 42 42 45 45 45 48 48 42 39 35 26 16 19 23 29 39 61 61 65 68 68
39 52 58 68 71 74 77 74 81 81 71 68 58 55 55 55 52 52 55 48 48 45 42 45 45 45 48 48 48 48 42 39 19 19 16 26 39 42 58 52 58 61 61
35 42 48 55 58 61 65 71 68 71 68 58 52 52 52 45 45 48 48 48 42 45 39 42 45 48 48 48 45 45 45 39 26 16 23 23 35 35 52 52 58 55 52
39 39 45 55 52 52 58 68 71 65 61 55 52 48 48 42 39 42 45 45 42 39 35 35 35 45 45 45 45 45 42 32 16 26 26 26 39 42 52 55 55 55 55
35 39 39 48 55 55 55 52 48 45 42 42 45 48 39 26 26 29 32 35 39 32 32 35 39 35 29 32 35 35 23 13 16 16 16 35 42 45 48 48 55 55 55
35 39 39 45 48 48 42 39 35 32 29 29 32 32 29 26 23 26 23 29 29 29 29 29 26 19 19 19 23 19 13 13 10 13 16 26 39 42 48 48 48 48 48
39 35 39 39 42 32 29 29 29 29 26 26 29 29 26 26 23 26 23 23 23 23 23 23 19 16 16 13 13 16 13 10 10 6 13 26 42 39 42 42 39 39 42
29 29 32 35 35 23 19 23 29 23 26 26 26 26 23 19 16 13 13 16 16 23 19 16 16 16 16 16 10 10 10 6 6 3 10 19 35 35 35 35 35 35 35
26 32 29 35 16 16 19 16 16 16 19 23 19 16 19 16 10 10 10 10 13 16 10 10 13 13 10 10 6 6 10 10 6 6 6 6 26 32 35 35 32 35 35
26 26 26 23 13 13 16 13 6 13 13 16 16 13 16 13 10 10 10 10 10 13 10 6 3 6 6 6 10 6 6 6 6 6 3 6 10 23 29 32 29 32 35
19 23 23 29 23 13 10 6 10 6 10 6 10 10 10 13 10 13 13 10 10 6 6 3 3 6 6 3 3 0 0 0 3 6 6 6 10 13 19 26 26 26 29
23 26 26 19 19 13 6 10 10 6 13 10 6 10 10 10 10 10 10 10 10 6 6 3 3 3 3 3 3 0 0 0 0 6 6 6 10 16 16 16 23 19 19
10 13 16 23 13 6 6 6 3 3 3 3 3 0 0 6 10 10 10 10 10 6 3 3 3 3 3 3 3 0 0 0 0 3 6 6 10 6 6 13 16 13 13
13 13 13 13 10 6 6 10 6 6 3 3 3 6 3 0 3 3 6 3 6 3 3 3 3 3 3 3 0 0 0 0 0 0 0 3 0 6 6 6 6 10 10
6 10 10 13 10 6 3 3 3 6 3 0 0 0 3 3 3 3 3 0 3 3 3 3 3 3 3 3 0 0 0 0 0 0 0 0 0 3 6 6 6 13 13
10 10 13 13 10 6 3 0 0 0 0 3 0 0 0 3 3 3 0 0 0 3 3 3 3 3 3 0 0 0 0 0 0 0 0 0 0 0 0 3 3 3 6
13 10 10 13 10 0 3 6 3 0 0 0 3 3 3 3 0 0 0 0 0 0 0 3 3 3 3 3 0 0 0 0 0 0 0 0 0 0 0 0 0 3 3
13 10 10 10 6 0 0 0 0 0 0 0 0 0 3 0 0 0 0 0 0 0 0 0 0 3 3 3 0 0 0 0 0 0 0 0 0 0 0 0 0 0 0
13 13 10 10 3 3 0 0 0 0 0 0 0 0 0 0 0 0 0 0 0 0 0 0 0 0 3 3 3 0 0 0 0 0 0 0 0 0 0 0 0 0 0

GEFSSE_con_cape1000_234.txt.gz
Probability
39 52 77 84 87 81 84 77 81 77 81 84 84 87 90 90 90 84 84 84 84 81 74 61 61 61 61 65 55 55 58 65 58 55 55 55 55 61 55 48 48 29 77
45 55 84 90 84 87 81 81 74 77 81 87 87 87 87 87 84 84 84 77 74 74 65 58 55 52 55 55 55 52 55 55 58 45 45 55 58 58 71 55 58 71 84
52 65 65 97 90 90 90 87 84 84 87 87 87 87 87 81 81 77 74 71 74 65 61 58 55 55 52 55 52 52 55 55 52 52 52 48 45 58 65 61 65 74 71
58 65 55 84 94 90 87 84 90 90 87 87 87 87 84 81 81 77 68 71 68 65 61 55 55 52 52 52 52 52 52 52 52 52 35 26 35 55 61 61 61 65 71
61 58 65 84 87 87 87 87 90 87 87 87 87 81 81 81 74 74 74 71 68 65 55 48 42 42 45 48 52 55 48 55 55 48 26 29 42 58 58 65 55 65 68
61 52 71 77 77 87 87 90 87 84 87 81 81 81 81 74 74 71 65 65 61 55 52 48 48 45 42 42 42 35 42 42 42 23 23 19 32 55 52 61 58 65 68
58 55 61 77 81 84 81 84 84 71 74 77 81 71 71 68 61 61 61 58 48 48 45 42 42 39 39 42 42 39 39 35 32 23 23 19 32 52 45 45 52 58 58
55 52 65 77 77 77 81 74 71 71 71 68 61 55 48 45 48 52 52 45 45 39 39 39 42 39 45 48 48 42 35 35 19 13 19 19 35 42 35 42 55 58 58
48 55 58 71 71 74 71 77 71 71 71 65 55 52 48 45 45 42 45 45 42 39 39 39 35 42 45 48 48 48 42 42 16 13 13 19 42 45 48 55 58 52 52
45 52 58 58 61 65 71 68 68 68 65 52 48 48 48 42 42 42 42 39 39 39 35 35 35 39 39 42 42 42 42 42 10 3 10 23 42 42 39 45 52 52 55
42 55 52 55 58 55 58 65 65 65 55 48 48 48 48 35 35 39 32 39 35 35 32 32 32 39 35 39 39 45 45 23 10 10 13 35 39 39 35 45 48 52 55
52 48 45 45 45 58 55 68 71 58 48 45 45 45 39 35 39 32 32 32 32 29 29 29 29 32 32 32 32 42 26 13 13 6 13 35 32 32 39 39 39 42 45
45 42 48 48 55 55 61 68 71 65 58 42 45 42 45 39 39 35 35 35 32 32 32 32 32 26 23 19 19 23 13 6 3 0 6 39 39 29 29 39 39 42 45
45 48 45 52 58 55 65 68 68 58 55 45 45 42 45 42 39 39 39 32 35 35 32 35 39 19 13 16 10 10 6 13 10 10 19 29 29 39 32 32 35 35 35
48 52 55 55 58 61 61 68 65 58 52 45 55 48 42 42 42 35 45 39 32 29 29 32 32 16 13 19 13 6 6 3 6 10 13 29 29 29 29 23 32 32 32
42 48 58 52 58 58 58 58 55 52 58 42 48 39 39 39 39 45 48 45 35 35 29 35 19 23 26 13 13 16 6 10 13 16 16 16 23 26 26 23 26 29 29
45 48 48 45 55 58 58 52 52 45 45 42 42 45 42 42 42 42 42 45 39 35 42 39 19 16 23 6 19 16 13 10 13 16 13 13 13 23 29 29 29 26 26
48 48 48 39 45 48 48 52 48 42 39 39 39 39 42 35 39 48 42 42 45 42 32 35 35 19 10 13 16 26 16 19 13 13 19 13 16 10 23 29 29 32 29
55 55 52 42 45 45 45 45 39 45 39 39 42 35 39 42 29 39 45 48 42 39 35 29 26 26 23 26 23 23 13 13 16 13 13 6 6 13 19 26 26 23 19
48 52 52 48 42 42 42 45 35 35 32 35 39 45 42 42 42 39 39 39 39 35 35 32 32 39 35 39 10 3 19 16 13 13 10 10 10 6 6 10 23 19 19
42 48 48 45 39 42 42 35 32 29 29 29 29 29 32 32 32 35 29 35 32 29 39 35 29 26 23 32 23 19 26 13 16 19 19 16 13 10 10 13 19 19 16
42 45 45 32 32 39 35 35 29 26 26 26 23 26 26 26 29 23 29 32 32 32 32 29 23 29 23 19 19 16 16 16 13 10 16 16 10 16 13 6 16 23 16
32 35 29 35 29 32 29 32 29 26 19 23 19 23 23 19 23 26 26 29 26 26 19 19 23 23 23 19 13 10 10 0 6 13 13 13 16 16 19 16 10 19 19
29 32 35 35 39 32 29 23 23 26 19 19 26 19 19 23 23 26 26 19 23 19 19 16 16 16 16 16 19 23 16 6 3 3 3 10 10 16 16 13 6 13 16
32 26 29 35 35 32 29 23 29 23 16 29 29 23 23 16 16 16 19 19 19 19 13 13 16 16 13 16 16 19 16 16 6 3 3 6 10 16 13 10 19 16 16
29 23 23 26 23 23 23 23 23 23 23 23 23 23 19 13 13 10 10 10 13 13 13 13 13 10 16 13 13 16 13 10 3 6 6 3 6 10 10 13 13 13 13

GEFSSE_con_cape1000_240.txt.gz
Probability
48 58 94 94 94 90 87 84 84 87 84 81 84 81 84 84 87 81 81 81 81 84 74 68 61 65 61 65 61 58 58 58 61 58 58 52 55 55 42 42 48 42 81
58 58 90 87 87 87 87 90 87 84 84 81 81 87 84 84 84 81 81 77 71 68 65 65 61 55 48 55 58 58 55 48 48 42 55 58 58 58 55 48 58 61 71
61 65 84 87 87 87 90 84 81 81 84 84 84 84 84 84 81 81 81 74 65 65 58 55 55 55 52 52 48 45 45 42 42 45 52 45 45 81 65 58 55 58 55
68 65 74 90 90 84 84 81 81 84 84 81 84 81 81 81 81 81 74 71 65 61 65 61 52 58 55 55 52 45 39 39 39 48 45 35 45 81 77 68 61 61 55
65 68 87 87 90 87 84 81 81 84 84 77 77 74 81 81 84 74 71 68 61 55 52 48 48 45 45 48 48 35 39 42 55 55 32 29 45 84 74 68 68 61 65
68 65 87 90 84 84 84 84 84 84 81 77 71 71 65 71 68 58 58 58 55 48 48 42 45 45 39 39 35 39 32 39 45 29 32 32 48 77 68 71 65 61 61
55 61 74 81 77 74 84 84 84 81 68 65 61 65 65 55 52 52 58 55 48 48 48 42 39 42 39 42 42 45 48 45 39 26 29 32 52 81 71 65 61 58 52
58 65 74 77 74 74 74 74 74 74 71 68 58 61 55 55 48 48 48 45 45 45 42 42 45 39 35 35 32 39 45 48 29 19 23 35 68 74 65 58 52 52 55
55 55 58 74 71 77 68 65 68 68 68 61 61 55 55 48 45 45 48 48 35 35 35 39 35 35 35 35 35 39 39 42 29 13 16 26 65 74 65 61 55 52 45
45 52 58 55 58 68 68 61 65 65 65 61 52 48 48 48 45 42 39 39 32 32 32 32 32 32 35 35 35 42 42 52 19 3 16 39 65 65 55 55 45 45 52
42 42 52 48 55 58 61 58 65 61 61 55 52 48 45 42 39 35 32 42 32 32 29 32 32 35 35 35 35 39 39 26 13 6 16 42 55 55 55 48 45 48 48
35 35 42 48 61 58 55 61 61 58 55 52 52 52 52 52 42 32 39 42 32 32 29 29 39 39 32 26 32 42 29 19 10 6 29 42 48 45 42 35 35 45 52
39 48 48 58 61 61 58 61 61 48 55 55 52 55 58 61 45 39 42 42 39 32 29 32 32 32 32 32 35 29 23 10 10 10 29 45 48 42 42 35 35 35 35
39 45 48 55 61 61 55 55 61 52 52 48 58 55 48 58 52 48 48 39 35 32 39 42 42 42 39 29 32 23 23 6 6 10 23 35 32 39 39 32 32 29 35
42 55 55 55 58 65 61 58 58 65 52 52 52 52 48 58 45 45 48 52 42 42 42 45 35 42 39 35 29 19 13 10 10 16 19 35 42 39 35 32 26 26 26
48 52 55 55 58 55 58 61 65 58 58 52 48 45 48 45 48 52 48 52 45 45 45 48 42 39 32 42 32 26 26 16 16 13 16 26 39 39 42 35 35 26 26
52 55 52 48 52 52 52 55 55 55 55 48 42 42 42 35 39 45 48 48 48 52 52 45 42 42 35 29 26 26 26 26 19 29 16 19 16 26 32 39 42 39 39
48 52 55 48 52 55 55 52 45 42 32 39 35 35 39 39 39 45 42 39 45 42 42 39 35 35 29 29 29 26 23 29 29 23 16 13 13 6 19 29 35 35 35
55 55 52 52 52 58 48 48 45 48 39 35 32 39 32 26 32 32 35 35 32 29 32 23 26 26 19 19 19 23 23 39 29 16 10 16 10 16 3 19 26 35 35
55 52 48 45 48 52 45 52 48 39 39 35 35 29 29 29 29 29 26 29 32 29 29 23 26 29 23 23 16 13 19 23 23 13 13 13 13 13 3 3 16 19 35
52 52 45 45 42 52 55 48 45 35 35 32 29 29 29 32 32 32 19 32 29 29 26 19 26 16 19 19 16 13 13 16 16 16 13 13 10 10 10 10 10 10 16
45 52 52 48 52 52 52 52 52 48 35 29 23 29 29 29 32 26 32 26 23 23 19 19 19 19 16 16 13 10 10 10 13 10 13 10 10 10 10 6 10 10 6
45 42 45 52 48 52 48 39 45 39 29 23 23 26 26 29 26 29 26 19 19 16 16 16 23 19 16 16 13 10 6 6 6 6 16 13 10 6 6 10 10 13 6
32 35 45 39 39 45 35 32 23 23 19 19 19 23 26 23 23 23 23 19 16 16 16 16 16 16 10 13 10 13 10 6 6 3 3 3 6 6 6 13 13 13 10
32 32 39 45 39 35 32 35 32 26 23 23 23 23 29 26 19 16 16 19 16 19 16 13 16 13 10 13 10 13 13 13 6 3 3 6 6 6 10 16 16 13 6
32 32 42 48 45 39 39 32 32 26 23 26 23 23 29 23 19 13 13 13 19 16 10 13 16 13 13 13 13 10 10 13 13 3 3 6 3 6 6 10 6 6 6

GEFSSE_con_cape1000_246.txt.gz
Probability
45 77 94 94 90 90 87 90 90 90 90 84 84 84 84 87 87 87 87 87 87 84 81 77 71 68 68 65 61 58 68 71 71 61 58 61 65 68 68 74 71 61 81
42 81 94 87 87 87 87 87 84 84 87 84 84 84 84 87 84 84 87 84 74 77 74 71 65 65 68 65 65 58 55 52 45 45 42 42 65 74 71 65 65 68 81
58 77 87 87 87 87 84 84 84 84 84 81 81 84 81 84 81 81 81 77 74 77 61 61 55 55 55 55 55 52 42 39 42 52 35 32 35 71 71 68 74 81 81
58 71 81 87 87 87 87 84 81 81 81 77 77 74 77 77 81 84 81 74 81 68 65 58 52 55 55 52 42 35 42 45 45 52 35 26 23 55 74 81 84 81 71
55 65 84 87 84 87 81 77 81 81 81 77 77 74 74 74 74 71 71 68 61 61 58 58 52 48 48 45 39 35 42 48 58 52 19 23 23 58 81 84 81 71 61
55 68 84 87 87 87 84 81 81 84 81 77 74 71 74 68 68 68 55 58 55 55 52 48 45 45 45 42 39 35 42 48 42 23 13 16 23 61 74 77 74 68 65
45 52 74 90 84 84 84 84 81 81 77 77 71 68 71 61 55 55 48 48 42 42 45 48 48 45 39 39 39 52 52 55 32 16 13 13 23 65 81 74 77 68 65
48 58 71 81 84 84 81 81 81 74 74 71 61 61 58 52 52 48 48 42 42 42 42 45 42 42 35 35 45 42 39 32 23 19 6 13 29 65 71 74 74 61 65
45 58 68 68 68 71 74 71 71 71 71 68 61 61 52 52 48 45 45 48 45 42 39 39 39 39 35 35 35 39 35 35 19 10 6 19 39 65 71 71 68 68 61
45 45 65 65 65 61 68 71 71 71 71 65 61 58 55 48 48 48 45 48 42 42 32 32 32 32 32 35 42 42 45 42 16 6 6 16 45 58 68 68 65 61 58
19 32 45 55 55 58 58 68 68 71 68 65 58 55 48 45 42 42 42 42 45 39 39 35 32 32 32 35 45 45 35 16 6 10 6 19 45 55 61 68 58 55 55
16 19 26 35 45 52 55 58 58 58 55 52 45 45 45 29 29 35 42 42 42 42 35 32 35 35 26 16 26 26 19 13 6 10 10 39 52 55 48 52 52 48 48
16 19 19 16 23 29 42 52 45 42 42 45 39 42 32 19 13 19 23 29 32 35 29 26 32 26 16 16 13 10 10 6 6 10 10 35 48 45 45 45 45 42 48
23 23 19 19 16 16 23 35 26 29 32 26 26 26 19 16 19 16 13 13 13 13 16 16 13 19 16 13 10 10 10 6 6 6 10 29 48 45 39 35 39 39 39
23 19 23 16 13 19 19 26 23 16 23 16 16 19 13 13 16 16 13 10 6 3 3 6 6 6 10 10 10 10 10 6 6 10 3 32 42 42 35 39 39 39 35
16 19 13 16 10 13 16 13 13 13 10 13 13 10 6 6 10 10 13 6 6 6 6 6 3 3 3 3 6 6 6 0 0 3 3 6 35 42 39 32 39 39 39
19 13 16 10 13 23 16 13 16 13 6 10 10 10 10 10 6 6 6 6 6 6 6 3 3 3 3 3 3 0 0 0 0 0 3 6 10 23 32 32 35 35 32
23 19 16 19 13 19 19 23 16 10 10 13 13 13 6 6 6 6 10 10 6 6 0 0 3 3 3 3 3 0 0 0 0 0 0 3 10 10 16 29 35 35 32
19 23 19 19 23 23 19 19 16 10 10 13 13 10 6 6 6 6 6 6 6 6 3 3 0 3 3 0 0 0 0 0 0 0 0 0 0 3 3 16 26 35 32
16 19 19 23 23 19 13 10 13 10 13 13 13 10 10 6 6 10 3 3 6 6 3 0 3 6 3 3 6 0 0 0 0 0 0 0 0 0 0 0 6 13 29
13 13 19 19 23 16 13 16 13 10 10 13 10 10 10 10 10 10 6 6 3 3 0 0 3 3 0 0 0 0 0 0 0 0 0 0 0 0 0 0 0 3 3
13 13 16 16 16 16 13 13 6 3 10 10 10 6 10 10 10 10 6 3 6 3 0 0 0 0 0 0 0 0 0 0 0 0 0 0 0 0 0 0 0 0 3
19 16 13 16 19 16 19 6 3 3 6 6 6 10 6 6 6 10 6 10 3 3 3 0 0 0 3 0 0 0 0 0 0 0 0 0 0 0 0 0 0 0 0
19 19 19 16 16 19 19 6 3 3 6 6 6 6 3 3 3 3 0 3 3 3 3 0 0 0 0 0 0 0 0 0 0 0 0 0 0 0 0 0 0 0 0
19 19 19 19 19 19 19 10 10 6 6 6 6 3 3 3 3 3 3 0 3 3 3 3 3 3 0 0 0 0 0 0 0 0 0 0 0 0 0 0 0 0 0
13 16 16 16 13 13 10 6 6 6 6 3 3 3 0 3 3 3 6 0 0 3 3 3 3 3 0 0 0 0 0 0 0 0 0 0 0 0 0 0 0 0 0

GEFSSE_con_cape1000_252.txt.gz
Probability
23 65 90 87 84 84 84 84 84 84 84 84 84 84 84 84 87 84 84 84 84 81 77 74 81 77 81 81 68 68 61 65 65 58 58 52 55 68 68 65 61 55 74
29 68 94 87 87 84 84 87 84 81 81 81 81 84 87 87 87 87 84 87 81 77 77 77 71 71 68 74 71 68 65 55 55 52 45 42 52 61 61 55 68 61 74
39 71 81 87 84 84 81 81 81 81 77 77 84 84 84 84 84 81 84 84 81 81 68 61 65 61 61 65 68 58 55 61 55 55 42 29 29 39 48 61 65 71 71
48 61 68 84 84 77 77 81 81 81 81 81 81 81 81 77 81 81 77 77 81 74 71 58 58 58 55 55 52 55 58 65 65 52 39 32 23 39 55 65 68 65 68
55 55 68 81 77 77 77 77 81 81 81 81 81 77 77 77 77 81 81 74 71 71 71 61 61 55 48 52 61 65 58 52 58 45 29 23 26 48 52 58 65 65 65
52 52 61 81 77 74 74 77 77 81 81 81 77 77 77 77 71 71 58 55 55 58 55 48 52 42 45 48 48 48 52 48 39 23 10 16 29 48 58 58 65 65 61
45 45 61 74 77 81 77 77 77 84 81 81 81 71 71 71 65 58 58 52 48 48 42 42 42 42 45 45 45 42 52 48 29 13 10 16 26 65 68 68 61 61 68
42 42 58 65 74 77 71 77 77 74 77 77 71 68 68 65 55 58 61 48 48 48 45 42 42 42 45 45 45 45 39 42 23 13 13 19 29 55 55 61 71 68 65
39 42 52 58 65 74 77 74 74 71 74 71 71 71 71 55 55 58 58 48 55 52 48 45 45 48 45 39 45 42 39 35 23 19 16 16 35 52 61 58 65 61 55
45 48 48 48 52 58 61 65 65 68 71 74 71 68 65 52 52 52 48 48 48 48 45 45 48 48 35 42 42 45 42 32 23 13 13 19 39 42 58 65 68 65 58
42 42 45 45 45 48 61 65 61 61 68 65 68 65 48 45 42 42 42 48 48 45 39 39 39 42 39 39 35 32 32 16 6 13 13 19 32 39 48 55 55 65 55
39 35 35 35 39 39 52 52 55 52 48 48 42 42 42 35 26 42 42 45 42 45 42 42 42 35 32 26 23 23 19 16 6 10 13 23 32 35 35 39 48 42 42
26 35 35 26 32 39 45 45 45 39 35 35 42 42 35 19 19 29 29 26 32 32 26 23 23 23 16 23 23 19 19 16 10 10 13 19 32 35 42 42 52 42 42
16 19 23 23 23 32 35 32 35 26 23 32 32 29 26 19 16 16 16 16 19 19 19 19 19 19 16 16 16 19 16 16 13 13 16 23 32 39 39 39 42 45 39
23 16 13 13 6 13 16 19 23 16 16 19 23 26 19 13 13 10 10 13 10 13 3 6 10 6 10 13 6 6 10 13 16 13 10 23 32 39 29 35 32 35 42
16 16 16 10 10 13 16 13 10 13 16 16 16 10 13 10 6 6 6 6 6 3 3 3 3 3 3 3 6 6 6 6 6 3 6 10 16 29 29 32 29 29 32
10 10 16 10 6 10 13 13 6 6 6 10 6 10 10 10 3 6 6 3 3 3 3 3 3 3 3 3 6 6 6 6 6 3 3 3 6 10 26 32 32 32 32
10 10 10 13 3 3 6 6 6 3 3 6 6 6 10 10 3 3 3 3 3 3 3 3 3 3 3 3 6 3 3 3 3 3 3 3 3 6 6 13 29 35 32
6 6 6 6 6 3 3 3 3 3 3 3 6 6 10 10 6 3 3 3 3 3 3 3 3 3 3 3 3 3 3 0 3 3 3 3 3 6 6 6 13 26 29
6 6 6 3 0 0 3 3 3 3 3 3 3 3 10 10 10 3 3 6 3 3 3 3 3 3 3 3 3 0 0 0 0 3 3 3 3 3 6 6 6 10 19
10 10 6 0 0 3 3 6 3 3 3 3 3 3 6 6 6 3 3 3 3 3 3 3 0 0 0 0 0 0 0 0 0 0 0 3 3 3 3 3 3 6 10
10 10 10 3 3 3 3 3 6 3 3 3 3 3 6 6 3 0 3 3 3 3 3 3 0 0 0 0 0 0 0 0 0 0 0 0 0 0 3 3 3 0 3
3 6 13 6 6 3 6 6 6 3 3 3 3 3 3 3 3 0 0 0 3 3 0 0 0 0 0 0 0 0 0 0 0 0 0 0 0 0 0 0 0 0 0
0 3 6 10 10 10 6 6 3 6 6 3 3 0 0 3 0 0 0 0 0 0 0 0 0 0 0 0 0 0 0 0 0 0 0 0 0 0 0 0 0 0 0
0 0 10 13 13 13 6 6 6 6 6 3 0 0 0 0 0 0 0 0 0 0 0 0 0 0 0 0 0 0 0 0 0 0 0 0 0 0 0 0 0 0 0
3 6 6 10 13 13 10 13 6 6 0 0 0 0 0 0 0 0 0 0 0 0 0 0 0 0 0 0 0 0 0 0 0 0 0 0 0 0 0 0 0 0 0

GEFSSE_con_cape1000_258.txt.gz
Probability
29 61 84 87 87 87 84 90 87 90 90 87 87 87 87 84 81 81 81 77 77 74 77 74 71 74 77 81 71 71 68 68 58 61 65 55 58 61 65 55 52 45 61
29 61 87 87 90 87 87 90 87 87 90 87 84 84 81 77 77 74 74 74 74 74 74 74 74 77 81 77 74 74 74 61 71 74 52 48 55 55 55 55 52 61 68
52 65 74 87 87 87 90 87 84 81 81 81 81 81 81 77 77 74 74 71 71 74 74 77 77 74 77 77 77 68 55 52 45 55 58 29 42 48 48 52 55 55 55
58 71 68 84 87 84 84 84 87 87 81 77 77 74 74 74 77 77 74 74 77 65 65 65 68 65 68 71 55 48 52 55 55 48 29 19 23 45 42 52 55 65 61
61 68 77 81 84 77 77 81 81 84 81 81 77 74 74 74 74 74 74 77 74 68 65 61 55 58 58 55 52 58 52 52 45 35 23 26 35 58 55 48 52 55 61
58 68 74 84 81 81 81 77 77 71 74 74 71 71 71 71 71 74 74 71 71 71 68 58 52 58 61 55 48 58 55 52 39 13 19 23 39 61 52 48 55 55 68
58 58 71 81 71 74 74 74 74 74 71 71 71 71 71 68 68 68 71 58 55 55 52 32 39 42 45 55 55 55 48 45 35 13 16 23 39 55 55 45 45 52 58
55 58 74 77 71 71 71 71 74 71 71 71 71 68 68 68 71 68 58 55 58 42 35 35 42 48 48 48 42 39 42 45 23 16 16 32 42 52 48 52 52 52 52
48 48 65 65 71 71 71 71 65 68 68 65 68 68 71 68 61 58 48 45 45 39 35 39 45 48 48 48 45 39 39 35 26 16 16 23 35 52 45 35 48 42 48
42 45 61 52 58 61 68 65 65 65 68 65 65 65 61 55 52 48 42 45 45 48 42 48 45 48 45 42 39 35 35 35 13 13 19 26 42 39 35 35 39 39 39
45 45 45 45 55 52 58 61 61 61 61 58 61 55 55 45 42 48 35 42 42 42 39 42 42 42 42 45 35 35 35 19 6 10 29 26 32 23 32 39 39 42 35
52 48 42 48 52 55 45 55 58 55 61 65 61 55 55 52 48 23 42 42 39 42 35 39 32 35 35 26 32 35 26 13 13 13 16 32 23 19 32 42 39 45 45
48 48 45 52 52 48 48 55 58 58 61 55 55 55 52 48 48 29 42 35 35 35 29 32 29 29 19 26 32 19 19 23 19 16 16 26 29 26 35 39 45 48 48
35 42 45 45 48 48 52 52 58 58 58 45 52 48 45 45 42 39 42 35 32 32 39 23 29 23 29 29 23 19 19 19 29 29 39 29 26 32 29 32 39 39 35
42 35 39 48 45 48 52 55 48 55 52 48 52 45 39 26 26 35 32 29 23 26 26 32 29 29 26 23 23 19 19 26 26 23 29 32 23 26 32 35 32 32 35
32 32 32 32 42 45 45 42 48 52 55 45 35 32 29 26 32 32 26 26 23 23 23 26 32 35 29 23 19 16 19 19 26 23 16 29 23 19 29 29 29 29 29
39 42 39 29 39 42 42 42 42 45 48 48 42 35 35 26 29 26 23 29 19 23 32 32 23 29 26 23 23 19 19 19 19 23 16 16 16 23 23 19 29 35 26
42 39 39 26 39 42 42 42 42 45 45 42 42 39 35 26 29 29 26 19 23 19 29 32 26 19 26 23 23 23 19 23 19 19 19 6 6 13 23 19 19 29 23
45 45 42 35 39 42 39 42 45 48 45 42 39 32 32 23 26 23 19 19 19 19 23 16 23 19 23 19 19 19 16 16 19 19 13 13 13 16 19 23 16 16 19
42 39 35 32 42 39 39 39 42 45 45 42 35 32 29 26 19 16 16 23 23 13 23 26 26 29 26 26 16 16 19 16 16 16 16 13 10 6 3 0 19 16 19
39 35 35 32 32 32 35 32 35 32 35 29 26 26 26 19 19 19 16 19 19 16 23 23 23 23 23 19 16 16 13 13 16 19 19 16 10 6 3 3 13 16 19
39 39 32 32 26 32 35 35 32 29 35 29 23 26 23 19 19 10 19 19 19 29 26 29 29 26 16 19 23 13 13 13 16 13 16 10 6 10 3 3 13 16 13
32 35 32 32 32 35 35 29 23 29 32 29 29 23 19 19 16 16 10 13 13 19 19 29 29 26 23 23 19 16 6 6 6 6 6 3 10 10 6 6 3 13 13
26 29 32 32 32 32 32 29 26 26 23 19 29 26 19 19 19 13 13 10 16 19 16 16 23 26 26 23 23 26 23 6 10 13 6 6 6 10 3 3 3 6 13
23 26 23 26 29 29 32 32 32 29 23 26 29 26 23 19 19 13 13 10 13 16 13 13 19 19 19 19 23 23 19 19 6 3 6 6 3 3 3 3 3 3 6
23 19 19 26 23 23 29 26 26 26 23 23 29 29 26 23 23 16 13 13 13 10 13 13 13 10 19 19 23 23 23 13 6 10 13 10 10 3 3 3 3 3 3